K1CSF Weather Reports


time (UTC)temp
C
wind
direction
speed
KPH
gust
KPH
rain 1hr
cm
rain 24hr
cm
rain mn
cm
humidity
%
barometer
mb
20260506183032 6 312 1.6 8.0 0.18 2.34 1.85 92 1008.5
20260506181534 5 293 4.8 9.7 0.18 2.31 1.83 92 1008.7
20260506180031 5 290 1.6 8.0 0.20 2.26 1.78 92 1008.8
20260506174530 5 302 1.6 8.0 0.20 2.21 1.73 92 1008.8
20260506173037 5 296 1.6 8.0 0.23 2.16 1.68 92 1009.0
20260506171529 6 296 1.6 11.3 0.25 2.13 1.65 91 1008.9
20260506170028 5 325 1.6 9.7 0.25 2.06 1.57 92 1008.9
20260506164528 5 350 3.2 9.7 0.28 2.01 1.52 91 1009.1
20260506163044 5 337 4.8 11.3 0.28 1.93 1.42 92 1009.1
20260506161529 5 340 6.4 17.7 0.28 1.88 1.40 91 1009.2
20260506160023 5 318 8.0 14.5 0.20 1.78 1.30 91 1009.3
20260506154530 5 290 3.2 11.3 0.20 1.73 1.24 91 1008.9
20260506153020 5 325 4.8 8.0 0.18 1.65 1.17 91 1009.0
20260506151519 6 332 1.6 12.9 0.13 1.60 1.12 91 1008.9
20260506150018 6 16 4.8 9.7 0.15 1.57 1.09 91 1009.0
20260506144517 6 304 0.0 4.8 0.13 1.52 1.04 91 1009.4
20260506143017 6 309 3.2 8.0 0.08 1.45 0.99 91 1009.2
20260506141515 6 42 3.2 14.5 0.13 1.45 0.99 91 1008.9
20260506140020 6 317 1.6 8.0 0.10 1.42 0.94 91 1009.1
20260506134513 6 323 3.2 6.4 0.15 1.40 0.91 91 1009.4
20260506133012 5 323 1.6 8.0 0.18 1.37 0.89 91 1009.6
20260506131517 5 288 3.2 8.0 0.18 1.35 0.86 91 1009.5
20260506130009 5 22 6.4 16.1 0.20 1.32 0.84 91 1009.4
20260506124507 5 344 6.4 12.9 0.20 1.24 0.76 91 1009.7
20260506123008 6 350 3.2 14.5 0.20 1.19 0.71 91 1010.0
20260506121502 6 341 3.2 8.0 0.18 1.17 0.69 91 1009.9
20260506120001 6 324 3.2 8.0 0.15 1.12 0.64 91 1010.6
20260506114600 6 297 4.8 8.0 0.10 1.04 0.56 90 1010.3
20260506113058 6 9 1.6 6.4 0.08 1.02 0.53 90 1009.6
20260506111558 6 31 1.6 8.0 0.08 0.99 0.51 90 1009.5
20260506110101 7 360 0.0 9.7 0.08 0.97 0.48 91 1009.4
20260506104551 7 19 1.6 8.0 0.08 0.94 0.46 91 1009.3
20260506103051 7 53 1.6 4.8 0.08 0.94 0.46 91 1009.8
20260506101603 7 40 1.6 8.0 0.08 0.91 0.43 91 1009.6
20260506100048 7 41 3.2 9.7 0.05 0.89 0.41 91 1009.7
20260506094548 7 5 1.6 8.0 0.05 0.86 0.38 90 1009.8
20260506093045 7 5 1.6 4.8 0.05 0.86 0.38 91 1009.9
20260506091544 7 32 1.6 6.4 0.08 0.84 0.36 91 1009.9
20260506090049 7 315 0.0 4.8 0.08 0.84 0.36 90 1010.1
20260506084545 8 340 3.2 6.4 0.10 0.81 0.33 90 1010.4
20260506083137 8 32 4.8 12.9 0.10 0.81 0.33 91 1010.2
20260506081541 8 57 6.4 14.5 0.05 0.76 0.28 91 1009.7
20260506073029 8 28 1.6 4.8 0.03 0.71 0.23 91 1010.0
20260506071528 9 28 1.6 6.4 0.05 0.71 0.23 91 1009.8
20260506061526 9 264 1.6 4.8 0.08 0.66 0.18 91 1010.3
20260506044516 10 334 3.2 9.7 0.15 0.56 0.08 90 1009.6
20260506043011 10 279 6.4 12.9 0.18 0.53 0.05 90 1009.9
20260506041512 10 284 1.6 6.4 0.23 0.51 0.03 90 1010.0
20260506040005 10 288 1.6 12.9 0.20 0.48 0.48 89 1009.5
20260506034504 11 298 8.0 19.3 0.15 0.41 0.41 89 1009.6
20260506033100 11 336 8.0 16.1 0.10 0.36 0.36 88 1009.2
20260506031556 11 342 6.4 12.9 0.10 0.28 0.28 88 1008.8
20260506030056 11 340 3.2 9.7 0.10 0.28 0.28 89 1008.6
20260506024558 12 341 4.8 12.9 0.10 0.28 0.28 89 1008.3
20260506023107 12 351 6.4 22.5 0.08 0.25 0.25 88 1008.2
20260506021549 14 360 6.4 12.9 0.00 0.18 0.18 85 1008.6
20260506020053 14 182 1.6 3.2 0.00 0.18 0.18 84 1008.0
20260506014546 15 182 1.6 3.2 0.03 0.18 0.18 82 1007.7
20260506013052 15 194 4.8 12.9 0.03 0.18 0.18 82 1007.3
20260506011547 14 171 1.6 11.3 0.03 0.18 0.18 84 1007.1
20260506010043 15 171 3.2 8.0 0.00 0.15 0.15 83 1007.1
20260506004543 15 152 1.6 4.8 0.00 0.15 0.15 84 1007.0
20260506003043 14 147 1.6 6.4 0.00 0.15 0.15 86 1006.8
20260506001552 14 135 0.0 6.4 0.00 0.15 0.15 87 1006.6
20260506000042 14 138 3.2 8.0 0.00 0.15 0.15 87 1006.5
20260505234542 15 164 3.2 11.3 0.00 0.15 0.15 86 1006.5
20260505233041 14 159 3.2 9.7 0.00 0.15 0.15 87 1006.3
20260505231541 15 156 1.6 9.7 0.00 0.15 0.15 88 1006.0
20260505230108 15 156 1.6 8.0 0.00 0.15 0.15 88 1005.8
20260505224540 15 207 1.6 8.0 0.00 0.15 0.15 88 1006.3
20260505223043 15 194 3.2 6.4 0.00 0.15 0.15 88 1006.0
20260505221545 15 194 3.2 9.7 0.00 0.15 0.15 88 1005.9
20260505220050 15 163 4.8 12.9 0.00 0.15 0.15 88 1005.7
20260505214539 15 188 4.8 11.3 0.00 0.15 0.15 88 1005.6
20260505213038 15 162 4.8 8.0 0.05 0.15 0.15 88 1006.0
20260505211537 15 251 1.6 4.8 0.05 0.15 0.15 87 1005.7
20260505210037 15 202 1.6 8.0 0.05 0.15 0.15 87 1005.5
20260505204536 15 298 4.8 25.7 0.05 0.15 0.15 87 1005.8
20260505203036 15 207 0.0 9.7 0.00 0.10 0.10 87 1005.4
20260505201535 15 204 3.2 8.0 0.03 0.10 0.10 87 1004.3
20260505200040 15 313 3.2 12.9 0.10 0.10 0.10 86 1004.2
20260505194533 15 344 6.4 14.5 0.10 0.10 0.10 87 1004.2
20260505193036 15 288 6.4 12.9 0.10 0.10 0.10 84 1004.3
20260505191535 17 273 6.4 37.0 0.08 0.08 0.08 76 1003.9
20260505190026 21 219 12.9 33.8 0.00 0.00 0.00 49 1002.8
20260505184528 22 238 12.9 29.0 0.00 0.00 0.00 45 1002.4